Location: Beddau
(51.5575°N, 3.3561°W)
Time: 14:07:17
(UTC+00:00)

CSL-04 Debris - Pass Details

Date: 03 March 2021
Orbit: 826 x 848 km, 98.9° (Epoch: 11 April)

Event Time Altitude Azimuth Distance (km) Brightness Sun altitude
Rises 18:25:04 0° 142° (SE) 3,378 7.0 -5.1°
Reaches altitude 10° 18:27:29 10° 137° (SE) 2,451 6.3 -5.4°
Maximum altitude 18:32:39 47° 65° (ENE) 1,107 4.5 -6.3°
Drops below altitude 10° 18:37:54 10° 353° (N) 2,479 6.7 -7.1°
Sets 18:40:21 0° 348° (NNW) 3,421 7.5 -7.4°
